Terminal Aerodrome Forecast
Issued by NWS

Home | Current Version | Previous Version | Graphics & Text | Print | Product List | Glossary On
Versions: 1 2 3 4 5 6 7 8 9 10 11 12 13 14 15 16 17 18
888
FTUS41 KCLE 211520 AAA
TAFFDY
TAF AMD
KFDY 211520Z 2115/2212 18008KT P6SM OVC100
     FM211600 22008KT P6SM OVC050
      TEMPO 2119/2123 6SM -SHRA
     FM212300 22006KT P6SM OVC025
     FM220400 20004KT 3SM BR OVC012
     FM220900 20004KT 1SM BR OVC004=

USA.gov is the U.S. government's official web portal to all federal, state and local government web resources and services.